TimeCST,TemperatureF,Dew PointF,Humidity,Sea Level PressureIn,VisibilityMPH,Wind Direction,Wind SpeedMPH,Gust SpeedMPH,PrecipitationIn,Events,Conditions,WindDirDegrees,DateUTC
12:53 AM,28.9,18.0,64,30.05,10.0,WNW,20.7,26.5,N/A,,Overcast,290,2012-01-02 06:53:00
1:53 AM,28.0,17.1,63,30.06,10.0,WNW,17.3,25.3,N/A,,Overcast,300,2012-01-02 07:53:00
2:39 AM,26.6,15.8,64,30.05,9.0,WNW,18.4,28.8,0.00,Snow,Light Snow,290,2012-01-02 08:39:00
2:53 AM,27.0,16.0,63,30.07,9.0,WNW,21.9,31.1,0.00,,Overcast,290,2012-01-02 08:53:00
3:53 AM,26.1,16.0,66,30.06,9.0,WNW,19.6,26.5,0.00,Snow,Light Snow,290,2012-01-02 09:53:00
4:53 AM,26.1,18.0,71,30.07,6.0,West,20.7,25.3,0.00,Snow,Light Snow,270,2012-01-02 10:53:00
5:11 AM,24.8,19.4,80,30.04,3.0,West,18.4,25.3,0.00,Snow,Light Snow,280,2012-01-02 11:11:00
6:00 AM,21.2,19.4,93,30.05,0.8,WNW,19.6,27.6,0.00,Snow,Light Snow,290,2012-01-02 12:00:00
6:11 AM,21.2,19.4,93,30.05,0.5,WNW,18.4,26.5,0.00,Fog-Snow,Snow,290,2012-01-02 12:11:00
6:29 AM,21.2,17.6,86,30.06,2.0,WNW,17.3,32.2,0.00,Snow,Light Snow,300,2012-01-02 12:29:00
6:43 AM,21.2,15.8,80,30.06,9.0,WNW,19.6,26.5,0.00,,Overcast,300,2012-01-02 12:43:00
6:53 AM,21.9,15.1,75,30.09,6.0,NW,13.8,26.5,0.00,Snow,Light Snow,310,2012-01-02 12:53:00
7:27 AM,21.2,12.2,68,30.08,1.8,NW,25.3,34.5,0.00,Snow,Light Snow,310,2012-01-02 13:27:00
7:45 AM,19.4,15.8,86,30.09,0.5,WNW,13.8,26.5,0.00,Fog-Snow,Snow,300,2012-01-02 13:45:00
7:53 AM,19.9,17.1,89,30.12,0.8,WNW,17.3,24.2,0.00,Snow,Light Snow,290,2012-01-02 13:53:00
8:02 AM,19.4,15.8,86,30.09,1.0,WNW,16.1,24.2,0.00,Snow,Light Snow,300,2012-01-02 14:02:00
9:13 AM,19.4,15.8,86,30.12,0.5,WNW,20.7,29.9,0.00,Fog-Snow,Snow,300,2012-01-02 15:13:00
9:25 AM,19.4,15.8,86,30.12,1.0,WNW,17.3,31.1,0.00,Snow,Light Snow,300,2012-01-02 15:25:00
9:38 AM,19.4,14.0,80,30.12,2.5,WNW,20.7,27.6,0.00,Snow,Light Snow,300,2012-01-02 15:38:00
9:48 AM,19.4,15.8,86,30.12,1.0,WNW,18.4,-,0.00,Snow,Light Snow,300,2012-01-02 15:48:00
10:14 AM,19.4,15.8,86,30.13,0.8,WNW,18.4,25.3,0.00,Snow,Light Snow,290,2012-01-02 16:14:00
10:31 AM,21.2,15.8,80,30.13,1.0,WNW,17.3,26.5,0.00,Snow,Light Snow,300,2012-01-02 16:31:00
10:48 AM,19.4,15.8,86,30.13,1.5,WNW,17.3,28.8,0.00,Snow,Light Snow,300,2012-01-02 16:48:00
10:53 AM,19.9,15.1,81,30.16,1.2,WNW,15.0,26.5,0.00,Snow,Light Snow,300,2012-01-02 16:53:00
11:53 AM,21.0,14.0,74,30.17,1.2,NW,19.6,27.6,0.00,Snow,Light Snow,310,2012-01-02 17:53:00
1:02 PM,21.2,10.4,63,30.14,8.0,NW,12.7,25.3,0.00,,Overcast,320,2012-01-02 19:02:00
1:11 PM,21.2,10.4,63,30.15,5.0,NW,12.7,26.5,0.00,Snow,Light Snow,310,2012-01-02 19:11:00
2:53 PM,21.9,10.0,60,30.22,10.0,WNW,17.3,26.5,0.00,,Overcast,300,2012-01-02 20:53:00
3:46 PM,21.2,10.4,63,30.22,8.0,NW,16.1,23.0,0.00,Snow,Light Snow,310,2012-01-02 21:46:00
3:53 PM,21.0,10.9,65,30.26,6.0,NW,16.1,23.0,0.00,Snow,Light Snow,320,2012-01-02 21:53:00
4:11 PM,21.2,12.2,68,30.23,2.0,WNW,12.7,24.2,0.00,Snow,Light Snow,300,2012-01-02 22:11:00
4:41 PM,21.2,12.2,68,30.24,3.0,WNW,13.8,20.7,0.00,Snow,Light Snow,300,2012-01-02 22:41:00
4:53 PM,21.0,14.0,74,30.28,4.0,WNW,12.7,25.3,0.00,Snow,Light Snow,300,2012-01-02 22:53:00
5:14 PM,19.4,14.0,80,30.26,2.0,WNW,15.0,23.0,0.00,Snow,Light Snow,300,2012-01-02 23:14:00
5:32 PM,19.4,15.8,86,30.26,1.5,WNW,17.3,23.0,0.00,Snow,Light Snow,300,2012-01-02 23:32:00
5:46 PM,19.4,15.8,86,30.27,1.2,NW,15.0,23.0,0.00,Snow,Light Snow,310,2012-01-02 23:46:00
5:53 PM,19.9,14.0,78,30.30,2.0,WNW,17.3,26.5,0.00,Snow,Light Snow,300,2012-01-02 23:53:00
6:20 PM,19.4,14.0,80,30.27,4.0,WNW,18.4,24.2,0.00,Snow,Light Snow,300,2012-01-03 00:20:00
6:35 PM,21.2,12.2,68,30.28,6.0,WNW,13.8,23.0,0.00,Snow,Light Snow,300,2012-01-03 00:35:00
6:53 PM,21.0,12.9,71,30.32,5.0,WNW,15.0,-,0.00,Snow,Light Snow,300,2012-01-03 00:53:00
7:53 PM,21.0,12.9,71,30.32,8.0,WNW,13.8,-,0.00,Snow,Light Snow,300,2012-01-03 01:53:00
8:30 PM,21.2,15.8,80,30.29,2.0,WNW,17.3,24.2,0.00,Snow,Light Snow,300,2012-01-03 02:30:00
8:40 PM,21.2,14.0,74,30.30,5.0,WNW,19.6,27.6,0.00,Snow,Light Snow,290,2012-01-03 02:40:00
8:53 PM,21.0,14.0,74,30.33,3.0,WNW,13.8,26.5,0.00,Snow,Light Snow,300,2012-01-03 02:53:00
9:53 PM,21.0,12.9,71,30.34,7.0,WNW,12.7,23.0,0.00,Snow,Light Snow,300,2012-01-03 03:53:00
10:53 PM,21.0,12.9,71,30.35,9.0,WNW,12.7,21.9,0.00,Snow,Light Snow,300,2012-01-03 04:53:00
11:38 PM,21.2,12.2,68,30.31,7.0,NW,13.8,20.7,0.00,Snow,Light Snow,320,2012-01-03 05:38:00
11:53 PM,21.0,12.9,71,30.35,7.0,NW,10.4,-,0.00,Snow,Light Snow,310,2012-01-03 05:53:00